#timestamp,LO_Frequency,Hit,StdDev 
1696410015.6,286046997.9,N
1696410035.4,286046995.4,N
1696410055.3,286046996.4,N
1696410075.1,286046996.0,N
1696410095.9,286046996.4,N
1696410115.7,286046996.4,N
1696410135.5,286046996.0,N
1696410155.4,286046996.0,N
1696410175.2,286046993.7,N
1696410195.1,286046993.4,N
1696410196.0,286046993.4,N
1696410215.8,286046992.1,N
1696410235.6,286046992.5,N
1696410255.5,286046992.9,N
1696410275.3,286046990.2,N
1696410295.2,286046992.0,Y
1696410315.9,286046995.1,P
1696410335.7,286046995.4,P
1696410355.6,286046995.3,P
1696410375.4,286046998.0,Y
1696410395.2,286047000.2,P
1696410415.1,286046998.1,N
1696410416.0,286046998.1,N
1696410435.8,286046998.6,N
1696410455.7,286046998.1,N
1696410475.5,286046998.3,N
1696410495.3,286046999.2,N
1696410515.2,286046996.8,N
1696410535.0,286046996.8,N
1696410535.9,286046996.8,N
1696410555.8,286046996.5,N
1696410575.6,286046997.4,N
1696410595.4,286046997.9,N
1696410615.3,286046994.9,Y
1696410635.1,286046999.5,P
1696410655.9,286046996.5,P
1696410675.7,286046997.2,N
1696410695.5,286046996.9,N
1696410715.4,286046997.3,N
1696410735.2,286046997.3,N
1696410755.0,286046997.5,N
1696410755.9,286046997.5,Y
1696410775.8,286046998.9,P
1696410795.6,286046998.8,N
1696410815.5,286046999.0,N
1696410835.3,286046996.5,Y
1696410855.1,286047001.1,P
1696410875.9,286046998.5,N
1696410895.7,286046998.3,N
1696410915.6,286047001.0,N
1696410935.4,286047001.2,N
1696410955.2,286046998.6,N
1696410975.1,286046999.1,N
1696410976.0,286046999.1,N
1696410995.8,286046999.2,N
1696411015.6,286046996.9,N
1696411035.5,286046997.4,N
1696411055.3,286046997.8,N
1696411075.2,286046997.9,N
1696411095.0,286046995.4,Y
1696411095.9,286046995.4,P
1696411115.7,286046997.8,N
1696411135.6,286046996.8,N
1696411155.4,286046997.6,N
1696411175.3,286046997.1,N
1696411195.1,286046997.5,N
1696411215.8,286046997.3,N
1696411235.7,286046997.3,N
1696411255.5,286046995.5,Y
1696411275.4,286046998.3,P
1696411295.2,286046996.9,P
1696411315.0,286046997.4,P
1696411315.9,286046997.4,Y
1696411335.8,286047000.5,P
1696411355.6,286047000.6,N
1696411375.4,286046998.2,N
1696411395.3,286047000.8,N
1696411415.1,286046998.8,N
1696411435.9,286047001.0,N
1696411455.7,286046998.7,N
1696411475.5,286047000.7,N
1696411495.4,286046998.1,N
1696411515.2,286047000.8,N
1696411535.0,286046999.3,N
1696411536.0,286046999.3,N
1696411555.8,286046999.0,N
1696411575.6,286046998.6,N
1696411595.5,286046999.5,N
1696411615.3,286046996.5,Y
1696411635.1,286046996.6,P
1696411655.9,286046996.6,N
1696411675.7,286046996.6,N
1696411695.6,286046997.4,N
1696411715.4,286046997.0,N
1696411735.2,286046997.5,N
1696411755.1,286046994.9,Y
1696411756.0,286046994.9,P
1696411775.8,286046999.0,N
1696411795.6,286046996.7,N
1696411815.5,286046997.2,N
1696411835.3,286046996.7,N
1696411855.2,286046998.9,N
1696411875.9,286046999.6,N
1696411895.7,286046997.5,N
1696411915.6,286046998.0,N
1696411935.4,286046997.7,N
1696411955.3,286046995.0,Y
1696411975.1,286046999.6,P
1696411976.0,286046999.6,N
1696411995.8,286046999.5,N
1696412015.7,286046999.6,N
1696412035.5,286046996.7,Y
1696412055.4,286046996.9,P
1696412075.2,286046997.0,N
1696412095.0,286046997.6,N
1696412095.9,286046997.6,N
1696412115.8,286046997.2,Y
1696412135.6,286047000.7,P
1696412155.5,286046998.4,N
1696412175.3,286046998.9,N
1696412195.1,286046999.3,N
1696412215.9,286046997.0,N
1696412235.7,286046997.0,N
1696412255.5,286046997.8,N
1696412275.4,286046995.2,Y
1696412295.2,286046999.4,P
1696412315.1,286046997.1,P
1696412316.0,286046997.1,P
1696412335.8,286046997.1,Y
1696412355.6,286046999.3,P
1696412375.5,286046999.2,N
1696412395.3,286046996.9,P
1696412415.2,286046997.4,N
1696412435.9,286046994.9,Y
1696412455.7,286046999.2,P
1696412475.6,286046996.9,P
1696412495.4,286046997.4,N
1696412515.2,286046997.0,Y
1696412535.1,286046998.5,P
1696412536.0,286046998.5,P
1696412555.8,286046999.6,N
1696412575.7,286046997.3,Y
1696412595.5,286046999.5,P
1696412615.3,286046996.9,P
1696412635.2,286046997.4,N
1696412655.0,286046997.8,N
1696412655.9,286046997.8,N
1696412675.8,286046995.5,Y
1696412695.6,286046997.4,P
1696412715.4,286046997.9,P
1696412735.3,286046995.5,P
1696412755.1,286046996.0,Y
1696412775.8,286046997.2,P
1696412795.7,286046997.9,P
1696412815.5,286046995.4,P
1696412835.4,286046995.1,Y
1696412855.2,286046999.3,P
1696412875.0,286046998.8,N
1696412875.9,286046998.8,N
1696412895.8,286046997.3,Y
1696412915.6,286046998.7,P
1696412935.5,286046997.4,P
1696412955.3,286046997.2,P
1696412975.1,286046997.5,Y
1696412995.9,286046999.5,P
1696413015.7,286046999.1,N
1696413035.5,286046998.9,N
1696413055.4,286046999.0,N
1696413075.2,286046999.2,N
1696413095.1,286046999.0,N
1696413096.0,286046999.0,N
1696413115.8,286046998.8,N
1696413135.6,286046998.6,Y
1696413155.5,286047000.6,P
1696413175.3,286047000.0,N
1696413195.2,286047000.1,N
1696413215.9,286047000.0,N
1696413235.7,286047001.0,N
1696413255.6,286047000.7,N
1696413275.4,286047011.9,Y
1696413295.2,286047000.2,P
1696413315.1,286047000.0,P
1696413316.0,286047000.0,N
1696413335.8,286047000.3,N
1696413355.7,286047000.3,N
1696413375.5,286047002.5,Y
1696413395.3,286047002.6,P
1696413415.2,286047002.4,N
1696413435.0,286047002.0,N
1696413435.9,286047002.0,N
1696413455.8,286047000.1,N
1696413475.6,286047000.4,N
1696413495.4,286047000.3,N
1696413515.3,286047000.2,N
1696413535.1,286047000.0,N
1696413555.9,286047000.9,N
1696413575.7,286047000.1,N
1696413595.5,286047000.4,N
